Notices

What's New in latest Release from April 7th, 2021:

- Updated Glossary, including Speed of Maximum Gust, and Total Hourly Precipitation

- Updated national and regional climate services offices contacts and prices information

- Addition of station inventory lists for 1981-2010, 1971-2000, and 1961-1990 Normals.

If you haven't already, please take our survey and provide feedback about our website: https://eccc.sondage-survey.ca/f/LanguageSelection.aspx?s=442ca660-fcf1-47c0-95a9-59707d6fd709

Hourly Data Report for December 17, 2004

TORONTO CITY
ONTARIO

43°40'00.000" N
79°24'00.000" W
112.50 m
6158355
71508
XTO

Download Data

Hourly Data (December 2004)
Hourly Data Report for December 17, 2004
TIME
LST
Temp Definition
°C
Dew Point Definition
°C
Rel Hum Definition
%
Precip. Amount Definition
mm

Wind Dir Definition
10's deg

Wind Spd Definition
km/h
Visibility Definition
km
Stn Press Definition
kPa
Hmdx Definition


Wind Chill Definition


Weather Definition


00:00 0.2 -4.9 69   LegendMM LegendMM LegendMM 100.09     LegendNANA
01:00 -0.7 -5.9 68   LegendMM LegendMM LegendMM 100.13     LegendNANA
02:00 -1.7 -6.8 68   LegendMM LegendMM LegendMM 100.26     LegendNANA
03:00 -2.2 -6.4 73   LegendMM LegendMM LegendMM 100.33     LegendNANA
04:00 -2.3 -6.8 71   LegendMM LegendMM LegendMM 100.40     LegendNANA
05:00 -2.7 -6.8 73   LegendMM LegendMM LegendMM 100.49     LegendNANA
06:00 -2.9 -6.5 76   LegendMM LegendMM LegendMM 100.63     LegendNANA
07:00 -3.3 -8.6 67   LegendMM LegendMM LegendMM 100.79     LegendNANA
08:00 -3.9 -8.7 69   LegendMM LegendMM LegendMM 100.93     LegendNANA
09:00 -4.5 -12.2 55   LegendMM LegendMM LegendMM 101.05     LegendNANA
10:00 -4.5 -11.4 59   LegendMM LegendMM LegendMM 101.10     LegendNANA
11:00 -4.4 -11.1 59   LegendMM LegendMM LegendMM 101.11     LegendNANA
12:00 -4.1 -10.9 59   LegendMM LegendMM LegendMM 101.12     LegendNANA
13:00 -3.4 -11.7 53   LegendMM LegendMM LegendMM 101.15     LegendNANA
14:00 -3.9 -11.1 57   LegendMM LegendMM LegendMM 101.14     LegendNANA
15:00 -3.9 -10.2 62   LegendMM LegendMM LegendMM 101.16     LegendNANA
16:00 -3.9 -10.9 58   LegendMM LegendMM LegendMM 101.17     LegendNANA
17:00 -4.2 -10.2 63   LegendMM LegendMM LegendMM 101.18     LegendNANA
18:00 -4.6 -9.9 66   LegendMM LegendMM LegendMM 101.15     LegendNANA
19:00 -5.2 -9.8 70   LegendMM LegendMM LegendMM 101.10     LegendNANA
20:00 -5.5 -9.7 72   LegendMM LegendMM LegendMM 101.06     LegendNANA
21:00 -5.2 -9.8 70   LegendMM LegendMM LegendMM 101.01     LegendNANA
22:00 -5.1 -10.5 66   LegendMM LegendMM LegendMM 100.97     LegendNANA
23:00 -4.5 -10.1 65   LegendMM LegendMM LegendMM 100.92     LegendNANA

Notes on Data Quality.

Legend

  • E = Estimated
  • M = Missing
  • NA = Not Available*
  • [empty] = Indicates an unobserved value
Date modified: